Weather History for KSTK - February, 2014

Change the Weather History Date:

Sunday, February 9, 2014

  Actual Average Record
Temperature  
Mean Temperature 14 °F -  
Max Temperature 17 °F 41 °F 69 °F (2015)
Min Temperature 10 °F 13 °F 10 °F (2014)
Degree Days  
Heating Degree Days 52    
Moisture  
Dew Point 8 °F    
Average Humidity 84    
Maximum Humidity 93    
Minimum Humidity 73    
Precipitation  
Precipitation 0.00 in - - ()
Sea Level Pressure  
Sea Level Pressure 30.09 in    
Wind  
Wind Speed 7 mph (East)    
Max Wind Speed 12 mph    
Max Gust Speed 16 mph    
Visibility 6 miles    
Events Snow    
Averages and records for this station are not official NWS values.
T = Trace of Precipitation, MM = Missing Value Source: NWS Daily Summary

Daily Weather History Graph

Daily Weather History Graph

Search for Another Location

Airport or City:

Trip Planner

Search our weather history database for the weather conditions in past years. The results will help you decide how hot, cold, wet, or windy it might be!

Date:

Astronomy

Feb. 09, 2014 Rise Set
Actual Time 6:54 AM MST 5:20 PM MST
Civil Twilight 6:25 AM MST 5:49 PM MST
Nautical Twilight 5:53 AM MST 6:21 PM MST
Astronomical Twilight 5:21 AM MST 6:53 PM MST
Moon 1:02 PM MST (2/9) 3:01 AM MST (2/9)
Length of Visible Light 11h 23m
Length of Day
10h 26m
Waxing Gibbous, 77% of the Moon is Illuminated
Feb 9
Waxing Gibbous
Feb 14
Full
Feb 22
Last Quarter
Mar 1
New
Mar 8
First Quarter

Hourly Weather History & Observations

Time (MST) Temp. Windchill Dew Point Humidity Pressure Visibility Wind Dir Wind Speed Gust Speed Precip Events Conditions
12:10 AM 17.6 °F 5.0 °F 14.0 °F 86% 30.07 in 5.0 mi NE 11.5 mph 16.1 mph N/A Snow Light Snow
12:30 AM 17.6 °F 8.2 °F 14.0 °F 86% 30.07 in 3.0 mi ENE 6.9 mph - N/A Snow Light Snow
12:50 AM 17.6 °F 6.4 °F 14.0 °F 86% 30.08 in 7.0 mi NE 9.2 mph - N/A Snow Light Snow
1:10 AM 15.8 °F 6.1 °F 12.2 °F 86% 30.08 in 10.0 mi ENE 6.9 mph - N/A   Overcast
1:30 AM 15.8 °F 4.2 °F 12.2 °F 86% 30.07 in 10.0 mi NE 9.2 mph - N/A   Overcast
1:50 AM 14.0 °F 2.0 °F 12.2 °F 93% 30.08 in 5.0 mi NE 9.2 mph - N/A Snow Light Snow
2:10 AM 14.0 °F 3.9 °F 12.2 °F 93% 30.07 in 5.0 mi ENE 6.9 mph - N/A Snow Light Snow
2:30 AM 14.0 °F 5.1 °F 12.2 °F 93% 30.06 in 4.0 mi ENE 5.8 mph - N/A Snow Light Snow
2:50 AM 14.0 °F 5.1 °F 12.2 °F 93% 30.06 in 3.0 mi ENE 5.8 mph - N/A Snow Light Snow
3:10 AM 14.0 °F 2.9 °F 10.4 °F 86% 30.06 in 4.0 mi ENE 8.1 mph - N/A Snow Light Snow
3:30 AM 14.0 °F 2.9 °F 10.4 °F 86% 30.07 in 7.0 mi ENE 8.1 mph - N/A Snow Light Snow
3:50 AM 12.2 °F 1.7 °F 10.4 °F 92% 30.06 in 10.0 mi ENE 6.9 mph - N/A Snow Light Snow
4:10 AM 12.2 °F 1.7 °F 10.4 °F 92% 30.07 in 7.0 mi ENE 6.9 mph - N/A Snow Light Snow
4:30 AM 12.2 °F 0.7 °F 8.6 °F 85% 30.07 in 2.0 mi NE 8.1 mph - N/A Snow Light Snow
4:50 AM 12.2 °F -0.2 °F 8.6 °F 85% 30.06 in 4.0 mi ENE 9.2 mph - N/A Snow Light Snow
5:10 AM 10.4 °F -1.5 °F 8.6 °F 92% 30.07 in 7.0 mi ENE 8.1 mph - N/A Snow Light Snow
5:30 AM 10.4 °F 0.8 °F 8.6 °F 92% 30.07 in 7.0 mi East 5.8 mph - N/A Snow Light Snow
5:50 AM 10.4 °F -0.4 °F 6.8 °F 85% 30.06 in 10.0 mi East 6.9 mph - N/A   Overcast
6:10 AM 10.4 °F 2.2 °F 6.8 °F 85% 30.06 in 10.0 mi East 4.6 mph - N/A   Overcast
6:30 AM 10.4 °F 2.2 °F 6.8 °F 85% 30.07 in 10.0 mi ESE 4.6 mph - N/A   Overcast
6:50 AM 10.4 °F -1.5 °F 5.0 °F 79% 30.06 in 10.0 mi East 8.1 mph - N/A   Overcast
7:10 AM 10.4 °F -0.4 °F 5.0 °F 79% 30.06 in 10.0 mi ESE 6.9 mph - N/A Snow Light Snow
7:30 AM 10.4 °F -0.4 °F 5.0 °F 79% 30.06 in 10.0 mi ESE 6.9 mph - N/A Snow Light Snow
7:50 AM 10.4 °F 0.8 °F 5.0 °F 79% 30.07 in 4.0 mi ESE 5.8 mph - N/A Snow Light Snow
8:10 AM 10.4 °F 0.8 °F 5.0 °F 79% 30.09 in 2.5 mi ESE 5.8 mph - N/A Snow Light Snow
8:30 AM 10.4 °F 2.2 °F 5.0 °F 79% 30.12 in 3.0 mi ENE 4.6 mph - N/A Snow Light Snow
8:50 AM 10.4 °F -1.5 °F 5.0 °F 79% 30.11 in 3.0 mi East 8.1 mph - N/A Snow Light Snow
9:10 AM 10.4 °F -1.5 °F 5.0 °F 79% 30.10 in 3.0 mi ESE 8.1 mph - N/A Snow Light Snow
9:30 AM 10.4 °F -1.5 °F 5.0 °F 79% 30.09 in 4.0 mi ESE 8.1 mph - N/A Snow Light Snow
9:50 AM 10.4 °F -1.5 °F 5.0 °F 79% 30.09 in 4.0 mi East 8.1 mph - N/A Snow Light Snow
10:10 AM 10.4 °F -2.4 °F 5.0 °F 79% 30.08 in 4.0 mi East 9.2 mph - N/A Snow Light Snow
10:30 AM 12.2 °F 0.7 °F 5.0 °F 73% 30.09 in 10.0 mi East 8.1 mph - N/A Snow Light Snow
10:50 AM 12.2 °F 0.7 °F 5.0 °F 73% 30.09 in 7.0 mi ESE 8.1 mph - N/A Snow Light Snow
11:10 AM 12.2 °F -0.2 °F 5.0 °F 73% 30.09 in 2.5 mi ESE 9.2 mph - N/A Snow Light Snow
11:30 AM 12.2 °F 0.7 °F 6.8 °F 79% 30.08 in 3.0 mi SE 8.1 mph - N/A Snow Light Snow
11:50 AM 12.2 °F -0.2 °F 6.8 °F 79% 30.08 in 4.0 mi SE 9.2 mph - N/A Snow Light Snow
12:10 PM 12.2 °F 2.9 °F 6.8 °F 79% 30.07 in 3.0 mi ESE 5.8 mph - N/A Snow Light Snow
12:30 PM 12.2 °F -0.2 °F 6.8 °F 79% 30.06 in 3.0 mi ESE 9.2 mph - N/A Snow Light Snow
12:50 PM 12.2 °F 0.7 °F 6.8 °F 79% 30.07 in 2.5 mi ESE 8.1 mph - N/A Snow Light Snow
1:10 PM 12.2 °F 0.7 °F 6.8 °F 79% 30.06 in 2.5 mi East 8.1 mph - N/A Snow Light Snow
1:30 PM 12.2 °F 2.9 °F 6.8 °F 79% 30.06 in 3.0 mi East 5.8 mph - N/A Snow Light Snow
1:50 PM 12.2 °F 1.7 °F 6.8 °F 79% 30.06 in 4.0 mi East 6.9 mph - N/A Snow Light Snow
2:10 PM 12.2 °F 1.7 °F 6.8 °F 79% 30.06 in 2.5 mi East 6.9 mph - N/A Snow Light Snow
2:30 PM 12.2 °F 1.7 °F 8.6 °F 85% 30.06 in 2.5 mi East 6.9 mph - N/A Snow Light Snow
2:50 PM 12.2 °F 2.9 °F 8.6 °F 85% 30.07 in 3.0 mi East 5.8 mph - N/A Snow Light Snow
3:10 PM 12.2 °F 0.7 °F 6.8 °F 79% 30.06 in 4.0 mi East 8.1 mph - N/A Snow Light Snow
3:30 PM 12.2 °F 1.7 °F 6.8 °F 79% 30.07 in 4.0 mi East 6.9 mph - N/A Snow Light Snow
3:50 PM 12.2 °F 0.7 °F 6.8 °F 79% 30.08 in 4.0 mi ESE 8.1 mph - N/A Snow Light Snow
4:10 PM 12.2 °F 2.9 °F 6.8 °F 79% 30.08 in 3.0 mi ESE 5.8 mph - N/A Snow Light Snow
4:30 PM 12.2 °F - 8.6 °F 85% 30.09 in 3.0 mi Calm Calm - N/A Snow Light Snow
4:50 PM 12.2 °F 6.1 °F 8.6 °F 85% 30.09 in 5.0 mi ESE 3.5 mph - N/A Snow Light Snow
5:10 PM 12.2 °F 4.3 °F 8.6 °F 85% 30.10 in 4.0 mi East 4.6 mph - N/A Snow Light Snow
5:30 PM 12.2 °F 4.3 °F 8.6 °F 85% 30.11 in 5.0 mi East 4.6 mph - N/A Snow Light Snow
5:50 PM 12.2 °F 4.3 °F 8.6 °F 85% 30.12 in 5.0 mi ESE 4.6 mph - N/A Snow Light Snow
6:10 PM 12.2 °F 4.3 °F 8.6 °F 85% 30.11 in 7.0 mi East 4.6 mph - N/A Snow Light Snow
6:30 PM 12.2 °F 4.3 °F 8.6 °F 85% 30.13 in 10.0 mi ESE 4.6 mph - N/A Snow Light Snow
6:50 PM 12.2 °F 4.3 °F 8.6 °F 85% 30.12 in 7.0 mi ESE 4.6 mph - N/A Snow Light Snow
7:10 PM 12.2 °F 4.3 °F 8.6 °F 85% 30.13 in 5.0 mi East 4.6 mph - N/A Snow Light Snow
7:30 PM 12.2 °F - 8.6 °F 85% 30.14 in 5.0 mi Calm Calm - N/A Snow Light Snow
7:50 PM 12.2 °F 6.1 °F 8.6 °F 85% 30.13 in 7.0 mi SSE 3.5 mph - N/A Snow Light Snow
8:10 PM 12.2 °F - 8.6 °F 85% 30.14 in 7.0 mi Calm Calm - N/A Snow Light Snow
8:30 PM 12.2 °F 4.3 °F 8.6 °F 85% 30.15 in 7.0 mi SSE 4.6 mph - N/A Snow Light Snow
8:50 PM 12.2 °F 4.3 °F 8.6 °F 85% 30.15 in 10.0 mi SSE 4.6 mph - N/A Snow Light Snow
9:10 PM 10.4 °F 2.2 °F 8.6 °F 92% 30.16 in 10.0 mi SSE 4.6 mph - N/A   Overcast
9:30 PM 10.4 °F 0.8 °F 8.6 °F 92% 30.15 in 7.0 mi SSE 5.8 mph - N/A Snow Light Snow
9:50 PM 10.4 °F 0.8 °F 8.6 °F 92% 30.15 in 5.0 mi SE 5.8 mph - N/A Snow Light Snow
10:10 PM 10.4 °F 2.2 °F 8.6 °F 92% 30.16 in 5.0 mi SSE 4.6 mph - N/A Snow Light Snow
10:30 PM 10.4 °F 0.8 °F 8.6 °F 92% 30.15 in 5.0 mi SSE 5.8 mph - N/A Snow Light Snow
10:50 PM 10.4 °F 2.2 °F 8.6 °F 92% 30.14 in 5.0 mi SE 4.6 mph - N/A Snow Light Snow
11:10 PM 10.4 °F 2.2 °F 8.6 °F 92% 30.14 in 5.0 mi SE 4.6 mph - N/A Snow Light Snow
11:30 PM 10.4 °F 4.0 °F 8.6 °F 92% 30.15 in 7.0 mi SSE 3.5 mph - N/A Snow Light Snow
11:50 PM 10.4 °F - 6.8 °F 85% 30.15 in 7.0 mi Calm Calm - N/A Snow Light Snow